Location: Unspecified
(33.9239°N, 118.0544°W)
Time: 01:57:40
(UTC-08:00)

Daily predictions for brighter satellites

Satellite Brightness Start Highest point End
(mag) Time Altitude Azimuth Time Altitude Azimuth Time Altitude Azimuth
CZ-3 R/B 4.2 02:26:41 10° W 03:21:35 59° SSW 03:33:14 10° SE
Cosmos 2237 Rocket 3.4 04:04:42 39° ESE 04:04:42 39° ESE 04:08:34 10° SE
SL-16 R/B 4.2 04:04:45 19° NNE 04:06:55 23° ENE 04:11:21 10° ESE
Cosmos 2297 Rocket 4.1 04:15:16 20° NNE 04:15:16 20° NNE 04:16:58 10° NNE
Cosmos 2227 Rocket 4.4 04:28:45 14° N 04:28:45 14° N 04:29:26 10° N
IUS-9 SRM-1 4.4 04:26:32 35° S 04:26:32 35° S 04:29:35 10° ESE
Thor Agena Rocket 3.5 04:40:52 10° S 04:45:35 71° SSW 04:45:35 71° SSW
Meteor 1-21 Rocket 4.1 04:48:30 70° SW 04:48:30 70° SW 04:53:40 10° S
Cosmos 1980 4.1 04:51:31 45° SSW 04:51:31 45° SSW 04:55:45 10° S
Tiangong 2 4.1 04:51:41 12° SSE 04:52:21 13° SE 04:53:51 10° ESE
Tsikada Rocket 3.9 04:49:34 16° N 04:54:51 79° W 05:01:07 10° S
Cosmos 2333 Rocket 3.4 05:03:32 27° SW 05:03:32 27° SW 05:06:38 10° SSW
SKYMED 2 4.0 04:58:06 10° SSE 05:02:21 60° ENE 05:05:21 19° N
GPS 2-05 Rocket1 3.8 05:03:55 42° E 05:03:55 42° E 05:06:14 10° ENE
Cosmos 968 Rocket 3.3 05:00:09 10° SSW 05:05:24 79° WNW 05:10:41 10° NNE
Atlas 2A Centaur Rocket 3.9 05:04:48 18° SSW 05:06:36 22° S 05:09:00 10° SE
Cosmos 1725 Rocket 4.4 05:09:28 10° SW 05:15:12 38° WNW 05:21:00 10° NNW
Cosmos 2219 Rocket 4.2 05:19:57 11° SW 05:19:57 11° SW 05:20:19 10° SW
NOAA 6 4.1 05:11:51 10° N 05:16:54 53° WNW 05:21:56 10° SSW
Cosmos 1328 3.8 05:16:15 17° N 05:19:15 78° E 05:23:13 10° S
ISS -1.7 05:21:28 24° N 05:22:17 27° NE 05:25:08 10° E
Cosmos 1461 4.4 05:24:49 21° SW 05:24:49 21° SW 05:26:51 10° SSW
Cosmos 2221 3.3 05:19:37 10° S 05:23:51 53° E 05:28:04 10° NNE
Cosmos 304 Rocket 3.6 05:22:03 20° NNW 05:25:23 83° WSW 05:30:09 10° SSE
OAO 2 Rocket 3.2 05:27:30 36° WNW 05:29:30 82° N 05:34:26 10° E
USA 229 DEB 3.8 05:25:53 20° NW 05:31:01 65° WSW 05:38:10 10° SSE
USA 229 3.8 05:25:56 20° NW 05:31:08 66° WSW 05:38:17 10° SSE
Aureole 2 Rocket 3.4 05:33:56 34° WNW 05:34:37 37° WSW 05:38:24 10° S
Cosmos 2058 3.3 05:30:45 10° N 05:34:50 64° E 05:38:57 10° SSE
Cosmos 2227 4.1 05:30:11 10° SSW 05:35:47 80° WNW 05:41:26 10° NNE
Aureole 1 4.2 05:33:54 10° SSW 05:36:52 82° ESE 05:40:11 10° NNE
CSL-04 Rocket 3.6 05:32:06 10° NNE 05:37:25 89° ESE 05:42:41 10° SSW
Cosmos 540 Rocket 4.3 05:37:01 27° W 05:37:45 28° W 05:42:02 10° SSW
Cosmos 1777 Rocket 3.9 05:34:08 10° SSW 05:39:20 75° WNW 05:44:33 10° NNE
Cosmos 1743 Rocket 4.4 05:42:26 26° WNW 05:43:28 29° W 05:47:14 10° SSW
PSLV R/B 3.8 05:44:07 32° WNW 05:45:06 40° NNW 05:48:18 10° NE
Cosmos 2237 Rocket 3.6 05:46:36 18° W 05:46:36 18° W 05:50:16 10° SW
DELTA 2 R/B (1) 3.5 05:43:04 16° WSW 05:47:36 87° NNW 05:53:11 10° ENE
Cosmos 1703 4.2 05:44:29 10° N 05:48:17 49° E 05:52:06 10° SSE
CSL-04 DEB 4.4 05:44:45 10° N 05:49:08 77° WNW 05:53:24 10° SSW
COSMO-SKYMED 1 3.2 05:46:27 10° SSW 05:50:23 34° W 05:53:55 12° NW
SL-16 R/B 2.6 05:46:41 14° NW 05:51:09 42° WSW 05:56:26 10° S
ERBS 3.6 05:51:26 12° NNW 05:54:24 37° NE 05:57:35 10° ESE
Cosmos 2297 Rocket 4.0 05:57:07 11° NW 05:57:07 11° NW 05:58:08 10° NNW
Cosmos 2151 3.3 05:54:17 10° NNW 05:58:18 44° W 06:02:19 10° SSW
Cosmos 1356 Rocket 4.0 05:55:10 10° N 05:59:14 59° E 06:03:20 10° SSE
IDEFIX/ARIANE 42P 2.9 05:54:15 10° NNE 05:59:31 71° ESE 06:04:45 10° S
Cosmos 1271 Rocket 3.4 05:56:21 10° SW 05:59:49 32° WNW 06:03:15 10° NNW
Cosmos 1340 Rocket 2.8 05:57:43 10° NNW 06:01:36 59° W 06:05:30 10° S
Meteor 1-28 Rocket 3.8 05:58:08 10° SSW 06:01:36 35° W 06:05:04 10° NNW
Cosmos 1805 Rocket 3.7 05:58:36 10° N 06:03:02 81° E 06:07:24 10° S
CZ-3 Stage 3 3.5 06:00:32 13° W 06:04:33 60° S 06:25:02 10° ESE
Cosmos 1538 Rocket 4.3 06:04:02 10° NNW 06:09:10 47° WSW 06:14:15 10° S
USA 234 4.1 06:03:23 10° ESE 06:09:35 47° NE 06:15:48 10° NNW
EP 2 4.3 06:08:38 10° SSW 06:11:19 80° ESE 06:13:56 10° NNE
SL-14 R/B 4.2 06:08:05 10° NNW 06:11:34 28° W 06:15:02 10° SSW
Cosmos 923 Rocket 4.1 06:11:29 10° NNW 06:16:44 85° ENE 06:21:59 10° SSE
Cosmos 1484 Rocket 4.3 06:13:30 10° NNE 06:17:20 43° E 06:21:07 10° S
SJ-12 3.9 06:14:32 10° N 06:18:33 58° WNW 06:22:32 10° SSW
Cosmos 1626 2.1 06:15:02 10° N 06:18:47 83° W 06:22:30 10° S
Ariane Rocket 3.8 06:14:39 10° NNW 06:18:56 28° WNW 06:23:12 10° SW
Cosmos 292 Rocket 3.9 06:16:18 10° NNW 06:21:05 81° ENE 06:25:53 10° SSE
Cosmos 2034 Rocket 4.1 06:18:03 10° SSW 06:24:03 55° W 06:30:10 10° N
Cosmos 1680 Rocket 3.8 06:20:17 10° NNW 06:25:36 78° ENE 06:30:55 10° SSE
Cosmos 389 Rocket 2.5 06:22:03 10° SSW 06:25:42 76° W 06:29:23 10° N
Cosmos 1898 Rocket 4.4 06:20:38 10° S 06:25:43 55° ESE 06:30:52 10° NNE
NOSS 3-1 (C) 4.2 06:18:13 10° NW 06:26:00 69° WSW 06:34:22 10° SSE
Sich 1 3.0 06:23:38 10° N 06:27:59 82° W 06:32:17 10° S
Tiangong 2 1.0 06:25:26 10° WSW 06:28:33 74° NNW 06:31:41 10° ENE
Cosmos 1328 Rocket 3.7 06:25:50 10° S 06:30:08 81° E 06:34:30 10° N
Cosmos 1633 Rocket 3.1 06:26:01 10° N 06:30:23 89° W 06:34:43 10° S
SMAP 3.1 06:26:16 10° N 06:30:51 60° WNW 06:35:26 10° SSW
Cosmos 2344 3.7 06:25:09 10° SSW 06:32:53 81° WNW 06:41:11 10° NNE
